Hourly Data Report for April 04, 2021

NANAIMO A
BRITISH COLUMBIA
Current Station Operator: NAVCAN

49°03'16.000" N
123°52'12.000" W
28.00 m
1025365
YCD

Download Data

Hourly Data (April 2021)
Hourly Data Report for April 4, 2021
TIME
LST
Temp Definition
°C
Dew Point Definition
°C
Rel Hum Definition
%
Precip. Amount Definition
mm

Wind Dir Definition
10's deg

Wind Spd Definition
km/h
Visibility Definition
km
Stn Press Definition
kPa
Hmdx Definition


Wind Chill Definition


Weather Definition


00:00 6.9 1.1 67 LegendMM 31 8 LegendMM 101.98     LegendNANA
01:00 6.1 0.0 65 LegendMM 29 10 LegendMM 102.02     LegendNANA
02:00 3.7 0.2 78 LegendMM 28 4 LegendMM 102.02     LegendNANA
03:00 2.9 0.3 83 LegendMM 28 8 LegendMM 102.03     LegendNANA
04:00 3.2 -0.6 76 LegendMM 28 7 LegendMM 102.03     LegendNANA
05:00 2.9 -1.0 75 LegendMM 26 7 LegendMM 102.06     LegendNANA
06:00 3.3 -1.3 72 LegendMM 29 10 LegendMM 102.08     LegendNANA
07:00 4.1 -1.1 69 LegendMM 30 14 LegendMM 102.12     LegendNANA
08:00 6.4 -1.0 59 LegendMM 32 7 LegendMM 102.11     LegendNANA
09:00 8.1 -3.5 44 LegendMM 31 21 LegendMM 102.09     LegendNANA
10:00 9.0 -2.5 44 LegendMM 34 20 LegendMM 102.14     LegendNANA
11:00 8.0 -2.9 46 LegendMM 35 24 LegendMM 102.14     LegendNANA
12:00 9.7 -2.6 42 LegendMM 33 17 LegendMM 102.14     LegendNANA
13:00 10.5 -4.6 34 LegendMM 29 26 LegendMM 102.15     LegendNANA
14:00 10.2 -4.1 36 LegendMM 33 20 LegendMM 102.17     LegendNANA
15:00 11.2 -4.1 34 LegendMM 32 18 LegendMM 102.16     LegendNANA
16:00 11.4 -4.9 32 LegendMM 32 18 LegendMM 102.16     LegendNANA
17:00 11.0 -5.8 30 LegendMM 29 16 LegendMM 102.12     LegendNANA
18:00 10.3 -7.8 27 LegendMM 29 14 LegendMM 102.12     LegendNANA
19:00 8.3 -5.9 36 LegendMM 29 6 LegendMM 102.12     LegendNANA
20:00 6.4 -3.4 49 LegendMM 23 5 LegendMM 102.15     LegendNANA
21:00 6.6 -3.0 51 LegendMM 29 8 LegendMM 102.16     LegendNANA
22:00 5.3 -2.9 55 LegendMM 22 5 LegendMM 102.14     LegendNANA
23:00 6.7 -2.1 53 LegendMM 31 19 LegendMM 102.12     LegendNANA

Notes on Data Quality.

Legend

  • E = Estimated
  • M = Missing
  • NA = Not Available*
  • [empty] = Indicates an unobserved value
Date modified: